2023/08/15 00:00:00, 1.7,23.9
2023/08/15 00:10:00, 1.7,24.0
2023/08/15 00:20:00, 1.6,23.8
2023/08/15 00:30:00, 1.6,24.0
2023/08/15 00:40:00, 1.6,24.0
2023/08/15 00:50:00, 1.6,24.2
2023/08/15 01:00:00, 1.8,24.0
2023/08/15 01:10:00, 1.7,24.3
2023/08/15 01:20:00, 1.6,24.2
2023/08/15 01:30:00, 1.6,23.8
2023/08/15 01:40:00, 1.6,24.1
2023/08/15 01:50:00, 1.6,24.1
2023/08/15 02:00:00, 1.6,23.9
2023/08/15 02:10:00, 1.7,24.5
2023/08/15 02:20:00, 1.8,24.3
2023/08/15 02:30:00, 1.7,24.1
2023/08/15 02:40:00, 1.7,24.0
2023/08/15 02:50:00, 1.7,23.5
2023/08/15 03:00:00, 1.9,23.5
2023/08/15 03:10:00, 1.9,23.0
2023/08/15 03:20:00, 2.2,22.4
2023/08/15 03:30:00, 1.7,22.5
2023/08/15 03:40:00, 1.8,22.5
2023/08/15 03:50:00, 2.0,22.2
2023/08/15 04:00:00, 1.8,22.2
2023/08/15 04:10:00, 1.7,22.5
2023/08/15 04:20:00, 1.6,22.3
2023/08/15 04:30:00, 1.7,22.5
2023/08/15 04:40:00, 1.7,22.8
2023/08/15 04:50:00, 1.7,22.6
2023/08/15 05:00:00, 1.8,22.6
2023/08/15 05:10:00, 1.7,22.9
2023/08/15 05:20:00, 1.6,22.7
2023/08/15 05:30:00, 1.7,23.1
2023/08/15 05:40:00, 1.8,22.9
2023/08/15 05:50:00, 1.8,23.2
2023/08/15 06:00:00, 1.9,23.4
2023/08/15 06:10:00, 1.7,23.5
2023/08/15 06:20:00, 1.9,23.4
2023/08/15 06:30:00, 1.8,23.6
2023/08/15 06:40:00, 1.9,23.5
2023/08/15 06:50:00, 1.6,23.6
2023/08/15 07:00:00, 1.7,23.2
2023/08/15 07:10:00, 1.7,23.5
2023/08/15 07:20:00, 1.7,23.6
2023/08/15 07:30:00, 1.4,23.3
2023/08/15 07:40:00, 1.3,23.4
2023/08/15 07:50:00, 1.5,23.4
2023/08/15 08:00:00, 1.5,23.6
2023/08/15 08:10:00, 1.5,23.6
2023/08/15 08:20:00, 1.9,23.5
2023/08/15 08:30:00, 1.8,23.4
2023/08/15 08:40:00, 1.7,23.6
2023/08/15 08:50:00, 1.2,22.9
2023/08/15 09:00:00, 1.6,23.4
2023/08/15 09:10:00, 1.6,23.5
2023/08/15 09:20:00, 1.4,23.6
2023/08/15 09:30:00, 1.6,23.6
2023/08/15 09:40:00, 1.3,23.2
2023/08/15 09:50:00, 1.7,23.0
2023/08/15 10:00:00,---,22.9
2023/08/15 10:10:00, 0.0,22.6
2023/08/15 10:20:00, 1.2,22.6
2023/08/15 10:30:00,---,22.8
2023/08/15 10:40:00, 1.7,22.7
2023/08/15 10:50:00,19.5,22.8
2023/08/15 11:00:00,---,22.4
2023/08/15 11:10:00,---,22.5
2023/08/15 11:20:00,18.4,22.3
2023/08/15 11:30:00, 0.0,22.6
2023/08/15 11:40:00, 0.0,22.5
2023/08/15 11:50:00, 0.0,22.8
2023/08/15 12:00:00,---,22.5
2023/08/15 12:10:00, 0.0,22.9
2023/08/15 12:20:00, 2.2,22.5
2023/08/15 12:30:00, 1.5,22.5
2023/08/15 12:40:00, 0.0,22.4
2023/08/15 12:50:00,---,22.9
2023/08/15 13:00:00, 2.3,22.5
2023/08/15 13:10:00,---,22.8
2023/08/15 13:20:00, 0.0,22.5
2023/08/15 13:30:00, 0.0,22.2
2023/08/15 13:40:00, 0.0,22.6
2023/08/15 13:50:00, 0.0,22.5
2023/08/15 14:00:00, 0.0,22.1
2023/08/15 14:10:00, 0.0,22.2
2023/08/15 14:20:00, 0.0,22.6
2023/08/15 14:30:00, 0.0,23.1
2023/08/15 14:40:00,63.9,22.8
2023/08/15 14:50:00,44.5,23.1
2023/08/15 15:00:00,44.5,23.0
2023/08/15 15:10:00,44.5,23.7
2023/08/15 15:20:00, 0.0,23.9
2023/08/15 15:30:00, 0.0,24.2
2023/08/15 15:40:00, 0.0,24.0
2023/08/15 15:50:00, 0.0,23.9
2023/08/15 16:00:00, 0.0,23.6
2023/08/15 16:10:00, 0.0,23.9
2023/08/15 16:20:00, 0.0,23.8
2023/08/15 16:30:00, 0.0,23.4
2023/08/15 16:40:00, 0.0,23.1
2023/08/15 16:50:00,---,23.2
2023/08/15 17:00:00,---,23.2
2023/08/15 17:10:00, 0.0,23.6
